Pleasanton, TX

1:26 AM CDT on April 25, 2017 (GMT -0500)
Pleasanton Municipal

Weather History for KPEZ - January, 2014

Change the Weather History Date:

Sunday, January 5, 2014

  Actual Average Record
Temperature  
Mean Temperature 48 °F -  
Max Temperature 56 °F 66 °F 77 °F (2011)
Min Temperature 38 °F 45 °F 30 °F (2015)
Degree Days  
Heating Degree Days 18    
Moisture  
Dew Point 33 °F    
Average Humidity 57    
Maximum Humidity 97    
Minimum Humidity 31    
Precipitation  
Precipitation 0.00 in - - ()
Sea Level Pressure  
Sea Level Pressure 30.10 in    
Wind  
Wind Speed 7 mph (NNW)    
Max Wind Speed 22 mph    
Max Gust Speed 29 mph    
Visibility 9 miles    
Events Fog    
Averages and records for this station are not official NWS values.
T = Trace of Precipitation, MM = Missing Value Source: NWS Daily Summary

Daily Weather History Graph

Daily Weather History Graph

Search for Another Location

Airport or City:

Trip Planner

Search our weather history database for the weather conditions in past years. The results will help you decide how hot, cold, wet, or windy it might be!

Date:

Astronomy

Jan. 05, 2014 Rise Set
Actual Time 7:28 AM CST 5:50 PM CST
Civil Twilight 7:02 AM CST 6:16 PM CST
Nautical Twilight 6:33 AM CST 6:46 PM CST
Astronomical Twilight 6:04 AM CST 7:14 PM CST
Moon 10:35 AM CST (1/5) 10:52 PM CST (1/5)
Length of Visible Light 11h 14m
Length of Day
10h 22m
Waxing Crescent, 25% of the Moon is Illuminated
Jan 5
Waxing Crescent
Jan 7
First Quarter
Jan 15
Full
Jan 23
Last Quarter
Jan 30
New

Hourly Weather History & Observations

Time (CST) Temp. Windchill Dew Point Humidity Pressure Visibility Wind Dir Wind Speed Gust Speed Precip Events Conditions
12:15 AM 55.8 °F - 51.8 °F 87% 29.83 in 10.0 mi SSE 5.8 mph - N/A   Clear
12:35 AM 55.9 °F - 52.0 °F 87% 29.83 in 10.0 mi SE 3.5 mph - N/A   Clear
1:15 AM 55.6 °F - 52.2 °F 88% 29.81 in 10.0 mi Calm Calm - N/A   Clear
1:35 AM 55.2 °F - 52.2 °F 89% 29.82 in 10.0 mi Calm Calm - N/A   Clear
2:15 AM 54.1 °F - 51.6 °F 91% 29.83 in 10.0 mi Calm Calm - N/A   Clear
2:35 AM 50.4 °F - 48.6 °F 94% 29.83 in 10.0 mi Calm Calm - N/A   Clear
3:15 AM 50.0 °F - 48.6 °F 95% 29.83 in 5.0 mi Calm Calm - N/A   Clear
3:35 AM 49.8 °F - 48.7 °F 96% 29.83 in 7.0 mi Calm Calm - N/A   Clear
4:15 AM 49.5 °F - 48.6 °F 97% 29.84 in 7.0 mi Calm Calm - N/A   Clear
4:35 AM 48.0 °F - 47.1 °F 97% 29.83 in 3.0 mi Calm Calm - N/A   Clear
5:15 AM 49.1 °F - 48.4 °F 97% 29.84 in 0.5 mi Calm Calm - N/A Fog Fog
5:35 AM 47.1 °F - 46.4 °F 97% 29.83 in 0.2 mi Calm Calm - N/A Fog Fog
6:15 AM 45.9 °F - 45.1 °F 97% 29.85 in 0.2 mi Calm Calm - N/A Fog Fog
6:35 AM 46.4 °F - 45.5 °F 97% 29.86 in 0.2 mi Calm Calm - N/A Fog Fog
6:55 AM 50.9 °F - 50.2 °F 97% 29.92 in 0.8 mi NNW 8.1 mph 28.8 mph N/A   Overcast
7:15 AM 53.1 °F - 52.3 °F 97% 29.94 in 7.0 mi North 9.2 mph - N/A   Mostly Cloudy
7:35 AM 52.7 °F - 52.0 °F 97% 29.94 in 5.0 mi Calm Calm - N/A   Scattered Clouds
7:55 AM 51.6 °F - 50.9 °F 97% 29.95 in 2.5 mi NNW 4.6 mph - N/A   Clear
8:15 AM 51.4 °F - 50.7 °F 97% 29.98 in 10.0 mi North 18.4 mph 24.2 mph N/A   Mostly Cloudy
8:35 AM 45.5 °F 38.6 °F 42.3 °F 88% 30.02 in 10.0 mi NNW 16.1 mph 21.9 mph N/A   Overcast
8:55 AM 45.9 °F 38.8 °F 35.2 °F 66% 30.04 in 10.0 mi North 17.3 mph 28.8 mph N/A   Overcast
9:15 AM 45.9 °F 39.4 °F 32.9 °F 61% 30.06 in 10.0 mi North 15.0 mph 24.2 mph N/A   Mostly Cloudy
9:35 AM 47.3 °F - 33.1 °F 58% 30.08 in 10.0 mi NNW 15.0 mph 18.4 mph N/A   Scattered Clouds
9:55 AM 47.7 °F - 31.6 °F 54% 30.09 in 10.0 mi North 16.1 mph 23.0 mph N/A   Clear
10:15 AM 48.2 °F - 30.7 °F 51% 30.11 in 10.0 mi North 17.3 mph 23.0 mph N/A   Clear
10:35 AM 48.2 °F - 29.7 °F 49% 30.14 in 10.0 mi North 13.8 mph 26.5 mph N/A   Clear
10:55 AM 49.1 °F - 29.7 °F 47% 30.14 in 10.0 mi NNW 11.5 mph 21.9 mph N/A   Clear
11:15 AM 50.5 °F - 30.0 °F 45% 30.14 in 10.0 mi North 13.8 mph 21.9 mph N/A   Clear
11:35 AM 51.3 °F - 29.3 °F 43% 30.13 in 10.0 mi NNW 17.3 mph 20.7 mph N/A   Clear
11:55 AM 52.2 °F - 29.3 °F 41% 30.13 in 10.0 mi North 10.4 mph 23.0 mph N/A   Clear
12:15 PM 53.1 °F - 29.1 °F 40% 30.13 in 10.0 mi NNW 17.3 mph 24.2 mph N/A   Clear
12:35 PM 52.7 °F - 29.1 °F 40% 30.13 in 10.0 mi NNW 13.8 mph 23.0 mph N/A   Clear
12:55 PM 54.3 °F - 29.5 °F 39% 30.12 in 10.0 mi NNW 11.5 mph 17.3 mph N/A   Clear
1:15 PM 55.4 °F - 29.3 °F 37% 30.11 in 10.0 mi NNW 13.8 mph 23.0 mph N/A   Clear
1:35 PM 55.8 °F - 28.4 °F 35% 30.11 in 10.0 mi NNW 13.8 mph 23.0 mph N/A   Clear
1:55 PM 56.7 °F - 27.5 °F 33% 30.11 in 10.0 mi NNW 21.9 mph 27.6 mph N/A   Clear
2:15 PM 55.8 °F - 26.6 °F 33% 30.12 in 10.0 mi North 17.3 mph 27.6 mph N/A   Clear
2:35 PM 55.6 °F - 27.0 °F 33% 30.12 in 10.0 mi NNW 13.8 mph 23.0 mph N/A   Clear
2:55 PM 54.9 °F - 26.1 °F 33% 30.13 in 10.0 mi NNW 15.0 mph 23.0 mph N/A   Clear
3:35 PM 54.9 °F - 25.2 °F 32% 30.14 in 10.0 mi NNW 15.0 mph 23.0 mph N/A   Clear
3:55 PM 54.1 °F - 24.3 °F 31% 30.15 in 10.0 mi NNW 16.1 mph 25.3 mph N/A   Clear
4:15 PM 53.1 °F - 24.4 °F 33% 30.16 in 10.0 mi NNW 13.8 mph 23.0 mph N/A   Clear
4:35 PM 52.3 °F - 22.5 °F 31% 30.18 in 10.0 mi North 16.1 mph 24.2 mph N/A   Clear
4:55 PM 51.4 °F - 22.8 °F 33% 30.19 in 10.0 mi NNW 11.5 mph 18.4 mph N/A   Clear
5:15 PM 50.9 °F - 22.6 °F 33% 30.20 in 10.0 mi North 10.4 mph 18.4 mph N/A   Clear
5:35 PM 50.2 °F - 20.8 °F 32% 30.21 in 10.0 mi NNW 13.8 mph 21.9 mph N/A   Clear
5:55 PM 49.3 °F - 21.2 °F 33% 30.21 in 10.0 mi NNW 9.2 mph 19.6 mph N/A   Clear
6:15 PM 48.6 °F - 21.2 °F 34% 30.23 in 10.0 mi NNW 9.2 mph - N/A   Clear
6:35 PM 48.0 °F - 20.7 °F 34% 30.24 in 10.0 mi North 8.1 mph - N/A   Clear
6:55 PM 47.7 °F - 20.7 °F 34% 30.25 in 10.0 mi North 10.4 mph - N/A   Clear
7:15 PM 47.3 °F - 20.3 °F 34% 30.27 in 10.0 mi North 12.7 mph 16.1 mph N/A   Clear
7:35 PM 46.4 °F 41.5 °F 19.4 °F 34% 30.28 in 10.0 mi North 10.4 mph 18.4 mph N/A   Clear
7:55 PM 45.5 °F 39.6 °F 19.4 °F 35% 30.30 in 10.0 mi NNW 12.7 mph 18.4 mph N/A   Clear
8:35 PM 44.1 °F 37.7 °F 19.4 °F 37% 30.32 in 10.0 mi North 12.7 mph 17.3 mph N/A   Clear
8:55 PM 43.3 °F 36.8 °F 18.7 °F 37% 30.33 in 10.0 mi North 12.7 mph 19.6 mph N/A   Clear
9:35 PM 41.7 °F 35.6 °F 18.9 °F 40% 30.35 in 10.0 mi North 10.4 mph 16.1 mph N/A   Clear
9:55 PM 41.2 °F 35.0 °F 18.5 °F 40% 30.36 in 10.0 mi North 10.4 mph 17.3 mph N/A   Clear
10:35 PM 40.6 °F 34.8 °F 18.3 °F 41% 30.39 in 10.0 mi North 9.2 mph 20.7 mph N/A   Clear
10:55 PM 40.3 °F 34.9 °F 17.8 °F 40% 30.40 in 10.0 mi North 8.1 mph - N/A   Clear
11:15 PM 39.6 °F 36.3 °F 18.3 °F 42% 30.41 in 10.0 mi North 4.6 mph - N/A   Clear
11:35 PM 39.2 °F 35.0 °F 18.3 °F 43% 30.41 in 10.0 mi North 5.8 mph - N/A   Clear
11:55 PM 38.7 °F 32.9 °F 18.3 °F 44% 30.42 in 10.0 mi North 8.1 mph - N/A   Clear